Theta_e
356 354 353 350 350 351 352 351 351 350 349 349 349 348 347 345 345 344 344 341 342 343 345 345 345 347 348 348 350 347 348 348 350
354 354 353 351 350 351 350 350 350 349 348 348 348 347 345 343 343 342 342 341 341 342 340 343 344 345 346 347 347 348 347 347 349
354 354 352 351 349 349 349 348 349 349 347 347 346 345 342 342 341 341 341 342 340 340 341 337 340 342 344 345 346 347 347 346 347
354 354 352 352 350 348 347 346 348 349 347 346 345 344 342 341 341 338 339 342 339 340 340 341 340 339 340 343 344 345 345 346 345
354 353 352 351 350 348 346 344 346 349 347 345 345 343 340 341 339 339 338 339 338 339 340 340 339 339 338 339 341 342 343 343 344
353 352 352 350 349 348 346 343 344 347 346 345 343 340 340 339 338 338 341 338 338 338 341 341 340 340 340 340 338 340 341 341 341
350 350 351 350 349 348 347 344 343 340 343 343 340 340 339 338 337 336 341 338 338 340 339 339 339 340 339 338 339 338 338 338 338
352 352 351 350 349 348 347 345 334 334 338 339 338 338 338 339 337 337 340 338 338 339 338 338 338 339 339 337 337 337 336 335 335
350 350 350 350 351 347 346 343 335 331 330 334 337 337 337 338 337 338 340 338 337 338 337 337 337 337 337 336 336 335 335 335 334
348 348 348 347 348 346 345 343 338 336 337 335 335 335 336 336 337 337 339 339 336 337 336 337 336 336 336 335 334 334 333 333 333
343 344 344 344 344 344 343 341 339 337 333 330 335 335 335 336 336 337 336 339 337 336 336 336 335 336 335 334 333 333 333 332 331
343 343 342 341 342 341 340 339 338 333 330 332 334 334 334 335 337 336 335 336 337 337 335 335 335 334 334 333 333 332 331 331 331
341 341 340 342 342 341 340 337 333 331 330 330 332 333 333 333 336 336 335 336 334 335 334 334 334 334 333 333 332 331 331 330 330
341 340 340 341 340 339 334 332 332 329 329 329 330 331 329 333 335 335 334 335 335 333 334 333 334 332 332 332 330 330 330 330 329
339 338 338 338 338 332 332 330 327 329 329 327 326 330 329 329 334 333 333 334 334 333 331 333 333 332 331 331 330 329 329 329 329
338 337 337 337 335 331 330 327 327 325 328 326 324 324 326 328 328 332 330 331 332 332 330 332 333 333 331 331 330 329 329 328 327
335 335 335 335 332 331 330 328 323 323 327 325 324 320 323 327 326 329 327 327 329 328 327 329 327 328 330 330 331 329 328 328 327
334 334 334 334 330 327 329 328 326 321 323 325 324 318 316 320 322 324 326 326 327 326 325 325 324 325 326 324 326 328 327 325 326
333 333 333 333 332 329 329 327 327 326 320 324 322 321 321 318 313 321 323 325 324 323 324 327 326 324 324 323 324 326 326 325 323
331 332 332 330 331 329 327 327 327 328 324 324 319 319 317 316 319 314 317 322 323 323 325 324 323 323 323 322 321 325 325 324 322
Wind_Speed
11 11 11 10 9 9 9 10 10 11 11 12 12 13 12 10 10 10 11 12 16 17 18 20 19 21 22 23 25 25 26 28 29
9 11 12 11 10 9 9 9 9 10 11 11 11 11 11 8 9 10 10 11 16 16 17 20 20 19 21 22 24 26 26 27 29
8 11 10 11 10 9 8 8 8 9 8 9 11 10 8 8 9 9 8 12 15 16 18 17 19 19 20 21 23 25 27 27 29
10 11 10 11 10 9 8 8 7 8 8 9 9 10 9 8 7 7 7 12 14 16 17 18 18 17 19 21 22 24 26 26 27
10 10 10 10 11 9 8 7 7 9 8 8 8 9 7 7 6 6 7 13 14 14 15 15 16 17 18 20 21 22 24 26 27
9 8 10 10 9 9 9 8 8 8 7 7 8 4 4 5 5 5 8 10 11 12 17 18 17 16 18 21 20 21 21 23 25
6 7 8 8 10 10 9 9 9 6 3 4 5 3 4 4 5 5 8 10 12 14 16 17 17 18 19 19 21 22 22 23 24
4 4 4 5 7 5 6 7 4 5 3 3 3 3 4 3 3 6 8 9 10 14 16 16 17 17 19 20 21 22 22 22 23
4 3 5 5 5 7 7 4 5 5 4 4 4 4 3 3 3 5 5 7 9 12 14 14 16 17 19 19 20 21 22 23 23
5 4 4 4 4 4 5 5 5 5 3 2 5 5 5 5 4 3 6 6 7 10 12 14 15 16 17 19 19 20 21 22 23
6 5 4 3 2 3 4 5 4 4 2 3 5 5 4 5 5 4 5 4 6 9 12 13 14 15 16 17 17 19 19 21 22
6 4 3 4 5 7 5 5 4 4 3 3 4 4 5 4 5 4 4 5 5 7 9 11 13 14 15 16 16 17 19 19 21
6 4 4 6 6 6 6 5 4 3 2 3 3 3 4 4 4 5 4 5 4 5 6 10 13 13 14 15 15 17 18 18 19
5 4 4 6 5 5 6 3 3 3 3 3 2 3 3 3 2 3 2 5 5 4 6 5 9 12 13 14 14 16 16 17 17
6 4 6 6 5 5 5 5 2 2 3 4 3 2 3 2 2 2 1 3 6 4 5 5 6 9 13 13 13 14 15 16 16
7 5 6 6 6 6 7 5 5 2 3 4 3 3 2 2 1 2 2 2 3 6 5 4 5 4 8 11 12 12 13 13 14
7 7 6 7 6 7 7 6 4 2 3 2 2 2 3 2 1 1 3 4 1 3 3 3 4 3 4 4 9 9 12 12 11
8 8 7 8 6 6 6 6 6 4 3 2 2 3 2 2 1 1 2 4 4 4 6 3 4 3 3 3 4 7 8 9 10
8 8 8 8 6 7 6 5 4 5 5 3 2 3 2 1 2 1 1 2 4 2 3 6 5 3 2 3 3 5 6 6 7
9 8 8 8 5 6 7 8 7 4 4 3 2 1 2 1 1 2 2 1 2 3 4 2 4 6 3 2 3 2 6 5 5
Wind_Direction
142 141 133 123 116 111 95 86 94 90 84 77 74 74 71 68 61 54 48 41 42 34 31 30 35 29 36 37 36 43 36 38 38
157 151 140 135 133 123 112 100 98 94 89 84 80 74 67 66 61 53 43 45 46 43 35 36 31 33 36 37 40 42 42 37 40
162 156 153 142 138 132 121 109 104 112 100 88 81 78 65 69 56 48 44 44 50 49 44 41 38 29 37 38 40 43 42 41 42
162 162 163 151 143 140 133 126 114 129 113 105 98 87 71 67 53 47 48 51 52 53 53 47 44 42 39 41 39 43 43 41 45
169 170 174 165 150 143 139 131 126 126 127 109 102 97 89 78 66 56 52 54 52 54 64 60 55 47 45 43 42 42 42 42 43
178 178 175 173 159 148 147 142 140 129 129 122 115 120 86 86 72 72 67 64 68 63 66 62 56 59 54 55 50 49 47 46 46
178 179 183 185 161 159 156 151 140 129 148 139 127 105 114 89 82 82 68 65 65 64 64 60 58 57 56 55 57 55 53 50 50
181 175 178 181 173 167 153 142 160 154 159 150 130 137 120 99 92 79 67 72 74 76 71 66 63 61 63 62 59 60 57 56 55
188 193 188 186 176 172 166 159 146 153 153 157 150 153 146 129 122 108 100 95 83 85 80 77 71 64 64 62 65 62 61 61 61
190 194 209 215 186 165 162 150 155 149 174 175 184 179 166 153 148 136 112 109 92 92 90 86 81 78 77 72 68 67 66 65 63
200 203 205 197 186 138 151 154 153 135 173 184 183 175 169 179 156 151 136 125 112 102 99 93 90 86 83 83 78 74 70 68 66
205 219 172 173 160 141 131 133 133 142 119 134 167 177 177 179 171 167 164 144 110 99 110 106 99 95 94 88 85 82 77 72 71
205 196 168 149 145 144 136 132 126 114 126 130 154 170 174 182 179 190 171 166 146 116 108 118 113 109 101 97 90 86 81 77 72
186 168 148 148 138 130 138 121 127 136 125 124 141 160 137 166 177 172 218 175 156 146 128 111 120 117 110 102 99 92 88 84 81
163 153 149 150 137 132 135 126 100 140 136 106 92 90 106 111 155 151 154 241 169 140 152 140 139 129 118 113 106 102 97 95 88
163 156 151 153 150 149 147 123 137 119 147 139 97 73 71 105 130 149 170 189 215 161 163 156 140 136 120 123 112 104 99 96 94
157 166 162 157 143 151 161 151 135 126 168 137 145 194 197 164 104 168 183 141 165 156 105 139 96 108 136 118 110 115 113 104 96
163 170 166 157 148 160 170 164 165 153 186 162 278 191 210 148 78 134 159 148 171 187 120 163 143 123 126 80 106 115 111 110 103
159 166 164 160 154 162 168 172 174 156 163 162 71 32 36 202 167 151 121 182 182 118 168 190 175 160 145 113 94 146 123 113 108
159 167 162 158 159 161 162 174 187 193 159 151 149 136 50 38 245 152 157 180 166 186 201 184 173 169 165 149 67 303 146 115 102